Stations météo

réclame
Mon MeteoGroup
Charlwood, Grande-Bretagne (3769): Température de l'air & dewpoint: 17.10.2019 17:00:00 - 23.10.2019 17:00:00 (BST)Charlwood, Grande-Bretagne (3769): Température de l'air -20cm & Température de l'air -100cm: 17.10.2019 17:00:00 - 23.10.2019 17:00:00 (BST)Charlwood, Grande-Bretagne (3769): Vitesse du vent & gusts: 17.10.2019 17:00:00 - 23.10.2019 17:00:00 (BST)Charlwood, Grande-Bretagne (3769): Direction du vent: 17.10.2019 17:00:00 - 23.10.2019 17:00:00 (BST)Charlwood, Grande-Bretagne (3769): reduced air pressure: 17.10.2019 17:00:00 - 23.10.2019 17:00:00 (BST)Charlwood, Grande-Bretagne (3769): visibility: 17.10.2019 17:00:00 - 23.10.2019 17:00:00 (BST)Charlwood, Grande-Bretagne (3769): Ensoleillement: 17.10.2019 17:00:00 - 23.10.2019 17:00:00 (BST)Charlwood, Grande-Bretagne (3769): Quantités de précipitations: 17.10.2019 17:00:00 - 23.10.2019 17:00:00 (BST)
Date & Time tt [°C] td [°C] tt -20cm [°C] tt -100cm [°C] ff [km/h] ff [knt] fx [km/h] fx [knt] dd ppp [hPa] vv [km] sd [min] rr [mm]
23.10.2019 17:00:00 13,3 10,7 - - 9 5 - - NE 1009,3 15 0 0,0
23.10.2019 16:00:00 13,6 10,8 - - 9 5 - - NE 1009,8 18 0 0,0
23.10.2019 15:00:00 14,2 10,5 - - 13 7 - - E 1010,7 17 6 0,0
23.10.2019 14:00:00 14,2 10,5 - - 13 7 - - E 1011,4 21 0 0,0
23.10.2019 13:00:00 14,2 11,9 - - 13 7 - - E 1012,8 12 6 0,0
23.10.2019 12:00:00 11,8 11,5 - - 8 4 - - NE 1013,6 5 0 0,0
23.10.2019 11:00:00 10,4 10,1 - - 9 5 - - E 1014,8 5 0 0,0
23.10.2019 10:00:00 8,5 8,2 12,2 13,7 4 2 - - NNE 1015,7 4,0 0 0,0
23.10.2019 09:00:00 7,1 6,8 - - 4 2 - - NNE 1016,2 2,4 0 0,0
23.10.2019 08:00:00 5,4 5,1 - - 2 1 - - NNE 1016,7 4,2 0 0,0
23.10.2019 07:00:00 4,4 4,1 - - 4 2 - - N 1017,3 4,8 0 0,0
23.10.2019 06:00:00 2,9 2,5 - - 2 1 - - N 1018,2 1,0 0 0,0
23.10.2019 05:00:00 2,5 2,2 - - 4 2 - - N 1018,6 1,2 0 0,0
23.10.2019 04:00:00 2,0 1,6 - - 2 1 - - N 1019,3 0,2 0 0,0
23.10.2019 03:00:00 2,4 2,0 - - 4 2 - - N 1020,2 0,2 0 0,0
23.10.2019 02:00:00 2,5 2,1 - - 2 1 - - NNW 1020,8 0,3 0 0,0
23.10.2019 01:00:00 2,6 2,2 - - 2 1 - - WNW 1021,3 1,1 - 0,0
23.10.2019 00:00:00 3,1 2,6 - - 2 1 - - ENE 1022,1 4,3 0 0,0
22.10.2019 23:00:00 3,3 2,7 - - 0 0 - - N 1022,4 2,7 0 0,0
22.10.2019 22:00:00 3,9 3,3 - - 2 1 - - W 1022,7 7 0 0,0
22.10.2019 21:00:00 4,6 3,8 - - 0 0 - - N 1022,4 8 0 0,0
22.10.2019 20:00:00 5,5 4,5 - - 2 1 - - WSW 1022,7 17 0 0,0
22.10.2019 19:00:00 6,9 5,1 - - 0 0 - - N 1022,7 40 0 0,0
22.10.2019 18:00:00 9,7 6,0 - - 4 2 - - SW 1022,6 50 0 0,0
22.10.2019 17:00:00 13,6 5,1 - - 5 3 - - S 1022,8 35 36 0,0
22.10.2019 16:00:00 14,4 4,8 - - 5 3 - - SW 1023,0 50 60 0,0
22.10.2019 15:00:00 15,5 5,9 - - 8 4 - - SW 1023,2 50 60 0,0
22.10.2019 14:00:00 13,9 3,8 - - 5 3 - - W 1023,8 29 60 0,0
22.10.2019 13:00:00 13,7 5,5 - - 4 2 - - W 1024,2 40 54 0,0
22.10.2019 12:00:00 13,2 7,3 - - 5 3 - - W 1024,6 40 60 0,0
22.10.2019 11:00:00 11,4 10,7 - - 2 1 - - SE 1024,7 15 60 0,0
22.10.2019 10:00:00 7,8 7,5 12,7 13,9 5 3 - - E 1025,0 7 54 0,0
22.10.2019 09:00:00 4,2 3,9 - - 0 0 - - N 1025,2 0,4 0 0,0
22.10.2019 08:00:00 2,8 2,3 - - 0 0 - - N 1024,3 0,2 0 0,0
22.10.2019 07:00:00 3,0 2,4 - - 2 1 - - SW 1023,7 0,3 0 0,0
22.10.2019 06:00:00 4,4 3,9 - - 4 2 - - WSW 1023,5 2,1 0 0,2
22.10.2019 05:00:00 4,9 4,2 - - 4 2 - - WSW 1023,3 2,2 0 0,0
22.10.2019 04:00:00 6,3 5,3 - - 0 0 - - N 1023,0 - 0 0,0
22.10.2019 03:00:00 7,9 6,9 - - 4 2 - - WNW 1022,8 10 0 0,0
22.10.2019 02:00:00 9,0 7,9 - - 2 1 - - NW 1023,0 13 0 0,0
22.10.2019 01:00:00 9,3 8,2 - - 2 1 - - NW 1023,0 17 - 0,0
22.10.2019 00:00:00 9,7 8,2 - - 2 1 - - NW 1023,0 15 0 0,0
21.10.2019 23:00:00 10,0 8,3 - - 4 2 - - NW 1022,9 19 0 0,0
21.10.2019 22:00:00 10,1 8,6 - - 4 2 - - NW 1022,6 19 0 0,0
21.10.2019 21:00:00 9,9 8,5 - - 5 3 - - NW 1022,0 20 0 0,0
21.10.2019 20:00:00 10,3 8,1 - - 5 3 - - WNW 1021,7 24 0 0,0
21.10.2019 19:00:00 10,8 9,0 - - 4 2 - - WNW 1021,2 17 0 0,0
21.10.2019 18:00:00 11,1 8,9 - - 5 3 - - N 1020,2 22 0 0,2
21.10.2019 17:00:00 11,4 9,4 - - 5 3 - - N 1019,6 20 0 0,0
21.10.2019 16:00:00 11,8 9,5 - - 5 3 - - N 1019,5 15 0 0,2
21.10.2019 15:00:00 11,8 9,3 - - 9 5 - - N 1019,4 22 0 0,0
21.10.2019 14:00:00 11,9 9,6 - - 9 5 - - N 1018,9 28 0 0,2
21.10.2019 13:00:00 11,8 9,6 - - 11 6 - - N 1018,4 24 0 0,0
21.10.2019 12:00:00 11,4 10,0 - - 11 6 - - N 1017,9 30 0 0,0
21.10.2019 11:00:00 11,1 10,1 - - 9 5 - - N 1017,5 12 0 0,8
21.10.2019 10:00:00 10,5 9,8 12,7 14,0 8 4 - - N 1017,0 10 0 1,4
21.10.2019 09:00:00 10,2 9,4 - - 8 4 - - N 1016,5 8 0 1,8
21.10.2019 08:00:00 10,2 9,3 - - 9 5 - - N 1015,6 11 0 0,6
21.10.2019 07:00:00 10,1 9,2 - - 9 5 - - N 1014,8 18 0 1,2
21.10.2019 06:00:00 10,0 8,9 - - 8 4 - - NNW 1014,3 12 0 1,4
21.10.2019 05:00:00 10,5 8,6 - - 11 6 - - N 1013,9 15 0 0,2
21.10.2019 04:00:00 11,1 8,2 - - 15 8 - - N 1013,5 28 0 0,0
21.10.2019 03:00:00 11,0 8,1 - - 15 8 - - NNE 1013,3 30 0 0,0
21.10.2019 02:00:00 10,8 8,4 - - 15 8 - - NNE 1013,3 30 0 0,0
21.10.2019 01:00:00 10,6 8,3 - - 11 6 - - NNE 1013,6 26 - 0,0
21.10.2019 00:00:00 10,4 8,2 - - 11 6 - - NNE 1013,5 29 0 0,0
20.10.2019 23:00:00 10,1 7,7 - - 11 6 - - NNE 1013,7 27 0 0,0
20.10.2019 22:00:00 10,0 7,6 - - 11 6 - - NNE 1013,0 30 0 0,0
20.10.2019 21:00:00 10,4 7,3 - - 11 6 - - NNE 1012,7 30 0 0,0
20.10.2019 20:00:00 10,3 7,1 - - 9 5 - - NNE 1012,6 40 0 0,0
20.10.2019 19:00:00 10,1 7,1 - - 8 4 - - N 1011,9 30 0 0,0
20.10.2019 18:00:00 10,0 6,1 - - 8 4 - - N 1011,7 35 0 0,0
20.10.2019 17:00:00 10,8 6,3 - - 13 7 - - NNE 1011,4 35 0 0,0
20.10.2019 16:00:00 11,8 7,2 - - 13 7 - - NNE 1011,0 26 18 0,0
20.10.2019 15:00:00 11,8 6,7 - - 16 9 - - NE 1010,7 30 12 0,0
20.10.2019 14:00:00 12,4 7,5 - - 15 8 - - NNE 1010,2 25 18 0,0
20.10.2019 13:00:00 10,6 7,3 - - 8 4 - - N 1010,2 18 18 0,0
20.10.2019 12:00:00 9,9 8,5 - - 11 6 - - NNE 1010,3 22 12 0,0
20.10.2019 11:00:00 8,7 8,4 - - 11 6 - - NNE 1010,1 12 30 0,0
20.10.2019 10:00:00 7,0 6,7 12,9 14,0 4 2 - - N 1009,7 5 0 0,0
20.10.2019 09:00:00 6,6 6,3 - - 4 2 - - NNW 1009,2 3,2 0 0,0
20.10.2019 08:00:00 3,9 3,6 - - 4 2 - - NE 1008,9 4,2 0 0,0
20.10.2019 07:00:00 2,8 2,4 - - 4 2 - - NNW 1008,2 7 0 0,0
20.10.2019 06:00:00 2,1 1,7 - - 0 0 - - N 1007,7 4,2 0 0,0
20.10.2019 05:00:00 2,0 1,6 - - 0 0 - - N 1007,4 3,6 0 0,0
20.10.2019 04:00:00 2,3 1,9 - - 0 0 - - N 1006,8 0,5 0 0,0
20.10.2019 03:00:00 3,0 2,5 - - 2 1 - - W 1006,8 4,8 0 0,0
20.10.2019 02:00:00 3,8 3,3 - - 2 1 - - W 1006,4 4,7 0 0,0
20.10.2019 01:00:00 3,9 3,4 - - 0 0 - - N 1006,3 0,6 - 0,0
20.10.2019 00:00:00 4,2 3,6 - - 2 1 - - WSW 1006,2 5 0 0,0
19.10.2019 23:00:00 5,2 4,6 - - 2 1 - - W 1005,6 9 0 0,0
19.10.2019 22:00:00 5,5 4,7 - - 2 1 - - SSW 1005,2 8 0 0,0
19.10.2019 21:00:00 6,1 5,2 - - 5 3 - - W 1004,4 16 0 0,0
19.10.2019 20:00:00 7,2 6,0 - - 5 3 - - WSW 1003,8 35 0 0,0
19.10.2019 19:00:00 8,4 6,2 - - 4 2 - - WSW 1003,2 45 0 0,0
19.10.2019 18:00:00 11,5 6,2 - - 8 4 - - WSW 1002,5 40 0 0,0
19.10.2019 17:00:00 13,8 6,3 - - 11 6 - - WSW 1001,9 50 48 0,0
19.10.2019 16:00:00 14,7 7,5 - - 13 7 - - SW 1001,5 45 60 0,0
19.10.2019 15:00:00 15,1 7,4 - - 13 7 - - WSW 1001,3 28 36 0,0
19.10.2019 14:00:00 13,4 5,9 - - 15 8 - - WSW 1001,0 50 36 0,0
19.10.2019 13:00:00 14,5 7,8 - - 16 9 - - WSW 1000,8 26 54 0,0
19.10.2019 12:00:00 14,0 9,0 - - 13 7 - - WSW 1000,7 35 60 0,0
19.10.2019 11:00:00 11,2 8,4 - - 11 6 - - WSW 1000,5 40 6 0,0
19.10.2019 10:00:00 11,1 10,0 13,4 14,2 11 6 - - WSW 1000,2 25 24 0,0
19.10.2019 09:00:00 8,8 8,3 - - 5 3 - - SW 1000,0 15 0 0,0
19.10.2019 08:00:00 8,2 7,7 - - 8 4 - - SW 999,6 16 0 0,0
19.10.2019 07:00:00 7,1 6,4 - - 5 3 - - SW 999,1 3,8 0 0,0
19.10.2019 06:00:00 8,4 7,7 - - 2 1 - - SSW 999,2 11 0 0,0
19.10.2019 05:00:00 8,5 7,5 - - 4 2 - - S 999,1 12 0 0,0
19.10.2019 04:00:00 9,3 7,9 - - 4 2 - - S 999,1 13 0 0,0
19.10.2019 03:00:00 10,1 8,2 - - 8 4 - - SSW 999,5 18 0 0,0
19.10.2019 02:00:00 10,6 8,7 - - 13 7 - - SSW 999,5 20 0 0,0
19.10.2019 01:00:00 11,3 9,1 - - 11 6 - - SW 999,8 13 - 0,0
19.10.2019 00:00:00 11,2 8,2 - - 8 4 - - SW 999,9 14 0 0,0
18.10.2019 23:00:00 11,7 8,2 - - 15 8 - - SW 1000,1 16 0 0,0
18.10.2019 22:00:00 11,7 8,5 - - 16 9 - - SW 1000,3 13 0 0,0
18.10.2019 21:00:00 12,1 7,9 - - 15 8 - - SW 1000,5 14 0 0,0
18.10.2019 20:00:00 11,9 7,6 - - 11 6 - - SW 1001,0 13 0 0,0
18.10.2019 19:00:00 12,0 7,6 - - 18 10 - - SW 1000,9 13 0 0,0
18.10.2019 18:00:00 12,4 8,6 - - 16 9 - - SW 1001,2 11 0 0,0
18.10.2019 17:00:00 13,2 7,8 - - 21 11 46 25 SW 1001,2 15 24 0,0
18.10.2019 16:00:00 14,2 8,5 - - 18 10 - - SW 1001,0 16 18 0,0
18.10.2019 15:00:00 14,0 8,1 - - 24 13 46 25 SW 1001,1 15 30 0,0
18.10.2019 14:00:00 13,0 8,1 - - 18 10 50 27 SW 1001,0 20 18 0,0
18.10.2019 13:00:00 13,0 8,8 - - 18 10 - - WSW 1001,0 19 0 0,0
18.10.2019 12:00:00 13,0 9,0 - - 15 8 - - SW 1000,9 9 54 0,0
18.10.2019 11:00:00 12,8 9,8 - - 13 7 - - SW 1000,9 20 60 0,0
18.10.2019 10:00:00 10,8 9,0 13,7 14,2 13 7 - - SW 1000,6 30 60 0,0
18.10.2019 09:00:00 9,2 8,4 - - 9 5 - - SW 1000,4 35 0 0,0
18.10.2019 08:00:00 9,2 8,6 - - 13 7 - - WSW 999,4 28 0 0,0
18.10.2019 07:00:00 9,0 8,3 - - 8 4 - - SW 998,3 24 0 0,6
18.10.2019 06:00:00 8,6 7,8 - - 4 2 - - SSW 997,8 40 0 1,2
18.10.2019 05:00:00 9,1 8,5 - - 5 3 - - SSW 998,2 10 0 0,0
18.10.2019 04:00:00 8,9 8,1 - - 5 3 - - S 998,8 35 0 3,4
18.10.2019 03:00:00 9,6 8,7 - - 9 5 - - SW 999,9 11 0 2,0
18.10.2019 02:00:00 11,3 10,8 - - 8 4 - - S 1000,7 13 0 0,0
18.10.2019 01:00:00 10,5 9,9 - - 8 4 - - S 1001,7 16 - 0,2
18.10.2019 00:00:00 10,1 9,6 - - 5 3 - - S 1002,4 14 0 0,0
17.10.2019 23:00:00 9,1 8,4 - - 4 2 - - SSE 1003,0 14 0 0,0
17.10.2019 22:00:00 10,4 9,8 - - 9 5 - - SSW 1003,8 25 0 0,8
17.10.2019 21:00:00 9,7 8,9 - - 5 3 - - SW 1004,1 17 0 0,0
17.10.2019 20:00:00 10,0 8,9 - - 8 4 - - SSW 1004,4 50 0 3,2
17.10.2019 19:00:00 11,1 9,8 - - 4 2 - - SSW 1004,7 14 0 0,2
17.10.2019 18:00:00 11,9 10,4 - - 9 5 - - WSW 1004,8 35 0 1,4
17.10.2019 17:00:00 12,5 10,6 - - 8 4 - - SSW 1004,8 7 0 0,2

tt = Température de l'air
td = dewpoint
tt -20cm = Température de l'air -20cm
tt -100cm = Température de l'air -100cm
ff = Vitesse du vent
fx = gusts
dd = Direction du vent
ppp = reduced air pressure
vv = visibility
sd = Ensoleillement
rr = Quantités de précipitations

stations d'obs. à proximité